Weather History for Michigan City, IN

Change the Weather History Date:

Friday, July 5, 2013

  Actual Average (KVPZ) Record (KVPZ)
Temperature  
Mean Temperature 68 °F 73 °F  
Max Temperature 80 °F 83 °F 100 °F (2012)
Min Temperature 55 °F 63 °F 49 °F (2001)
Degree Days  
Heating Degree Days 0 0  
Month to date heating degree days 0  
Since 1 June heating degree days 41  
Since 1 July heating degree days 0  
Cooling Degree Days 2 8  
Month to date cooling degree days 40  
Year to date cooling degree days 251  
Since 1 June cooling degree days 204  
Growing Degree Days 18 (Base 50)    
Moisture  
Dew Point 61 °F    
Average Humidity 77    
Maximum Humidity 100    
Minimum Humidity 51    
Precipitation  
Precipitation 0.00 in 0.12 in 1.75 in (2003)
Month to date precipitation 0.56  
Year to date precipitation 17.45  
Sea Level Pressure  
Sea Level Pressure 30.09 in    
Wind  
Wind Speed 1 mph (South)    
Max Wind Speed 8 mph    
Max Gust Speed -    
Visibility 7 miles    
Events Fog    
T = Trace of Precipitation, MM = Missing Value Source: NWS Daily Summary

Daily Weather History Graph

Daily Weather History Graph

Search for Another Location

Airport:

Trip Planner

Search our weather history database for the weather conditions in past years. The results will help you decide how hot, cold, wet, or windy it might be!

Date:

Astronomy

Jul. 05, 2013 Rise Set
Actual Time 5:18 AM CDT 8:24 PM CDT
Civil Twilight 4:45 AM CDT 8:58 PM CDT
Nautical Twilight 4:01 AM CDT 9:41 PM CDT
Astronomical Twilight 3:10 AM CDT 10:32 PM CDT
Moon 3:18 AM CDT (7/5) 6:18 PM CDT (7/5)
Length of Visible Light 16h 13m
Length of Day
15h 05m
Waning Crescent, 6% of the Moon is Illuminated
Jul 5
Waning Crescent
Jul 8
New
Jul 15
First Quarter
Jul 22
Full
Jul 29
Last Quarter

Hourly Weather History & Observations

Time (CDT) Temp. Heat Index Dew Point Humidity Pressure Visibility Wind Dir Wind Speed Gust Speed Precip Events Conditions
12:15 AM 60.8 °F - 59.0 °F 94% 30.10 in 0.2 mi Calm Calm - N/A Fog Fog
12:35 AM 60.8 °F - 59.0 °F 94% 30.09 in 0.2 mi Calm Calm - N/A Fog Fog
12:55 AM 60.8 °F - 59.0 °F 94% 30.09 in 0.2 mi Calm Calm - N/A Fog Fog
1:15 AM 59.0 °F - 59.0 °F 100% 30.09 in 1.0 mi Calm Calm - N/A   Mostly Cloudy
1:35 AM 59.0 °F - 59.0 °F 100% 30.09 in 0.2 mi Calm Calm - N/A Fog Fog
1:55 AM 59.0 °F - 57.2 °F 94% 30.07 in 0.5 mi Calm Calm - N/A Fog Fog
2:15 AM 59.0 °F - 57.2 °F 94% 30.07 in 0.2 mi Calm Calm - N/A Fog Fog
2:35 AM 59.0 °F - 57.2 °F 94% 30.07 in 0.5 mi Calm Calm - N/A Fog Fog
2:55 AM 59.0 °F - 57.2 °F 94% 30.08 in 0.2 mi Calm Calm - N/A Fog Fog
3:15 AM 57.2 °F - 55.4 °F 94% 30.08 in 0.5 mi Calm Calm - N/A Fog Fog
3:35 AM 57.2 °F - 57.2 °F 100% 30.08 in 0.2 mi Calm Calm - N/A Fog Fog
3:55 AM 57.2 °F - 55.4 °F 94% 30.08 in 0.5 mi Calm Calm - N/A Fog Fog
4:15 AM 57.2 °F - 55.4 °F 94% 30.08 in 0.5 mi Calm Calm - N/A Fog Fog
4:35 AM 55.4 °F - 55.4 °F 100% 30.08 in 0.2 mi Calm Calm - N/A Fog Fog
4:55 AM 55.4 °F - 55.4 °F 100% 30.08 in 0.2 mi Calm Calm - N/A Fog Fog
5:15 AM 55.4 °F - 55.4 °F 100% 30.09 in 0.2 mi Calm Calm - N/A Fog Fog
5:35 AM 55.4 °F - 55.4 °F 100% 30.09 in 0.2 mi Calm Calm - N/A Fog Fog
5:55 AM 55.4 °F - 55.4 °F 100% 30.10 in 0.2 mi Calm Calm - N/A Fog Fog
6:15 AM 57.2 °F - 55.4 °F 94% 30.09 in 0.5 mi Calm Calm - N/A Fog Fog
6:35 AM 55.4 °F - 55.4 °F 100% 30.10 in 0.5 mi Calm Calm - N/A Fog Fog
6:55 AM 57.2 °F - 55.4 °F 94% 30.10 in 1.2 mi Calm Calm - N/A   Mist
7:15 AM 57.2 °F - 55.4 °F 94% 30.11 in 2.5 mi Calm Calm - N/A   Clear
7:35 AM 59.0 °F - 59.0 °F 100% 30.11 in 3.0 mi Calm Calm - N/A   Clear
7:55 AM 62.6 °F - 62.6 °F 100% 30.11 in 4.0 mi Calm Calm - N/A   Clear
8:15 AM 64.4 °F - 64.4 °F 100% 30.12 in 7.0 mi Calm Calm - N/A   Clear
8:35 AM 68.0 °F - 64.4 °F 88% 30.12 in 10.0 mi Calm Calm - N/A   Clear
8:55 AM 69.8 °F - 62.6 °F 78% 30.12 in 10.0 mi Calm Calm - N/A   Scattered Clouds
9:15 AM 71.6 °F - 62.6 °F 73% 30.12 in 10.0 mi Calm Calm - N/A   Mostly Cloudy
9:35 AM 73.4 °F - 62.6 °F 69% 30.12 in 10.0 mi NW 3.5 mph - N/A   Scattered Clouds
9:55 AM 73.4 °F - 62.6 °F 69% 30.13 in 10.0 mi Calm Calm - N/A   Mostly Cloudy
10:15 AM 73.4 °F - 60.8 °F 65% 30.13 in 10.0 mi Calm Calm - N/A   Overcast
10:35 AM 73.4 °F - 60.8 °F 65% 30.12 in 10.0 mi NNE 3.5 mph - N/A   Scattered Clouds
10:55 AM 75.2 °F - 60.8 °F 61% 30.12 in 10.0 mi Calm Calm - N/A   Clear
11:15 AM 75.2 °F - 62.6 °F 65% 30.12 in 10.0 mi Calm Calm - N/A   Clear
11:35 AM 77.0 °F - 60.8 °F 57% 30.12 in 10.0 mi Calm Calm - N/A   Clear
11:55 AM 78.8 °F - 60.8 °F 54% 30.12 in 10.0 mi Calm Calm - N/A   Scattered Clouds
12:15 PM 78.8 °F - 60.8 °F 54% 30.11 in 10.0 mi South 4.6 mph - N/A   Scattered Clouds
12:35 PM 78.8 °F - 60.8 °F 54% 30.11 in 10.0 mi SSW 4.6 mph - N/A   Clear
12:55 PM 78.8 °F - 60.8 °F 54% 30.11 in 10.0 mi Calm Calm - N/A   Scattered Clouds
1:15 PM 80.6 °F 81.5 °F 60.8 °F 51% 30.11 in 10.0 mi SE 5.8 mph - N/A   Scattered Clouds
1:35 PM 80.6 °F 81.8 °F 62.6 °F 54% 30.10 in 10.0 mi SSW 4.6 mph - N/A   Scattered Clouds
1:55 PM 80.6 °F 81.5 °F 60.8 °F 51% 30.10 in 10.0 mi SW 4.6 mph - N/A   Scattered Clouds
2:15 PM 80.6 °F 81.8 °F 62.6 °F 54% 30.09 in 10.0 mi SSE 3.5 mph - N/A   Mostly Cloudy
2:35 PM 80.6 °F 81.8 °F 62.6 °F 54% 30.09 in 10.0 mi SSW 6.9 mph - N/A   Scattered Clouds
2:55 PM 80.6 °F 81.8 °F 62.6 °F 54% 30.08 in 10.0 mi SE 3.5 mph - N/A   Scattered Clouds
3:15 PM 78.8 °F - 62.6 °F 57% 30.07 in 10.0 mi South 4.6 mph - N/A   Scattered Clouds
3:35 PM 78.8 °F - 62.6 °F 57% 30.07 in 10.0 mi South 4.6 mph - N/A   Scattered Clouds
3:55 PM 80.6 °F 81.8 °F 62.6 °F 54% 30.06 in 10.0 mi South 5.8 mph - N/A   Scattered Clouds
4:15 PM 80.6 °F 81.8 °F 62.6 °F 54% 30.07 in 10.0 mi SSE 5.8 mph - N/A   Clear
4:35 PM 78.8 °F - 62.6 °F 57% 30.07 in 10.0 mi Calm Calm - N/A   Scattered Clouds
4:55 PM 80.6 °F 81.8 °F 62.6 °F 54% 30.06 in 10.0 mi South 5.8 mph - N/A   Mostly Cloudy
5:15 PM 80.6 °F 81.8 °F 62.6 °F 54% 30.05 in 10.0 mi South 5.8 mph - N/A   Scattered Clouds
5:35 PM 80.6 °F 81.8 °F 62.6 °F 54% 30.05 in 10.0 mi SSW 8.1 mph - N/A   Mostly Cloudy
5:55 PM 78.8 °F - 62.6 °F 57% 30.04 in 10.0 mi South 4.6 mph - N/A   Scattered Clouds
6:15 PM 78.8 °F - 64.4 °F 61% 30.05 in 10.0 mi SSW 4.6 mph - N/A   Scattered Clouds
6:35 PM 78.8 °F - 62.6 °F 57% 30.05 in 10.0 mi South 6.9 mph - N/A   Mostly Cloudy
6:55 PM 78.8 °F - 64.4 °F 61% 30.05 in 10.0 mi SSW 4.6 mph - N/A   Mostly Cloudy
7:15 PM 77.0 °F - 64.4 °F 65% 30.05 in 10.0 mi SSW 5.8 mph - N/A   Scattered Clouds
7:35 PM 77.0 °F - 62.6 °F 61% 30.05 in 10.0 mi South 3.5 mph - N/A   Clear
7:55 PM 77.0 °F - 62.6 °F 61% 30.05 in 10.0 mi Calm Calm - N/A   Clear
8:15 PM 73.4 °F - 64.4 °F 73% 30.06 in 10.0 mi Calm Calm - N/A   Clear
8:35 PM 71.6 °F - 64.4 °F 78% 30.06 in 10.0 mi Calm Calm - N/A   Clear
8:55 PM 71.6 °F - 64.4 °F 78% 30.06 in 10.0 mi Calm Calm - N/A   Clear
9:15 PM 69.8 °F - 64.4 °F 83% 30.07 in 10.0 mi Calm Calm - N/A   Clear
9:35 PM 69.8 °F - 64.4 °F 83% 30.07 in 10.0 mi Calm Calm - N/A   Clear
9:55 PM 69.8 °F - 64.4 °F 83% 30.07 in 10.0 mi Calm Calm - N/A   Clear
10:15 PM 68.0 °F - 64.4 °F 88% 30.07 in 10.0 mi Calm Calm - N/A   Clear
10:35 PM 68.0 °F - 64.4 °F 88% 30.08 in 10.0 mi Calm Calm - N/A   Clear
10:55 PM 68.0 °F - 64.4 °F 88% 30.09 in 7.0 mi Calm Calm - N/A   Clear
11:15 PM 68.0 °F - 64.4 °F 88% 30.09 in 7.0 mi Calm Calm - N/A   Clear
11:35 PM 68.0 °F - 64.4 °F 88% 30.09 in 7.0 mi Calm Calm - N/A   Clear
11:55 PM 68.0 °F - 64.4 °F 88% 30.08 in 7.0 mi Calm Calm - N/A   Clear